Regional Weather Roundup
Issued by NWS

Home | Current Version | Previous Version | Graphics & Text | Print | Product List | Glossary On
Versions: 1 2 3 4 5 6 7 8 9 10 11 12 13 14 15 16 17 18 19 20 21 22 23 24 25 26 27 28 29 30 31 32 33 34 35 36 37 38 39 40 41 42 43 44 45 46 47 48 49 50
000
ASUS43 KBIS 260131
RWRND
NORTH DAKOTA REGIONAL WEATHER ROUNDUP
NATIONAL WEATHER SERVICE EASTERN NORTH DAKOTA/GRAND FORKS ND
800 PM CDT THU MAY 25 2017

  NOTE: "FAIR" INDICATES FEW OR NO CLOUDS BELOW 12,000 FEET WITH NO
  SIGNIFICANT WEATHER AND/OR OBSTRUCTIONS TO VISIBILITY.

NDZ001>003-009>011-017-260200-
...NORTHWEST NORTH DAKOTA...

CITY           SKY/WX    TMP DP  RH WIND       PRES   REMARKS
WILLISTON      PTSUNNY   65  41  41 W13       29.50R
MINOT          CLOUDY    63  43  48 SW18G26   29.47R
MINOT AFB      PTSUNNY   61  45  55 W17       29.45R
$$

NDZ018>021-031>035-040>046-260200-
...SOUTHWEST NORTH DAKOTA...

CITY           SKY/WX    TMP DP  RH WIND       PRES   REMARKS
BISMARCK       FAIR      67  43  41 W18       29.53R
DICKINSON      FAIR      54  40  59 W21       29.57R
GARRISON         N/A     60  42  51 W20       29.51R
HETTINGER      FAIR      55  45  68 W20       29.63R
$$

NDZ004>008-012>016-024-026-027-054-260200-
...NORTHEAST NORTH DAKOTA...

CITY           SKY/WX    TMP DP  RH WIND       PRES   REMARKS
GRAND FORKS    PTSUNNY   68  51  54 SE17      29.49R
GRAND FORKS AF FAIR      67  51  56 S15G24    29.48R
DEVILS LAKE    PTSUNNY   69  45  41 W17       29.46R
$$

NDZ022-023-025-028>030-036>039-047>053-260200-
...SOUTHEAST NORTH DAKOTA...

CITY           SKY/WX    TMP DP  RH WIND       PRES   REMARKS
JAMESTOWN      FAIR      69  49  48 S8        29.47R
FARGO          MOCLDY    68  51  54 S18G24    29.51R
WAHPETON       CLOUDY    63  52  67 S14       29.55R
$$




USA.gov is the U.S. government's official web portal to all federal, state and local government web resources and services.